Tracking 18951 objects as of 21-Jan-2018
HD Live streaming from Space Station
objects crossing your sky now

SL-16 DEB

Track SL-16 DEB now!
10-day predictions


NORAD ID: 20628
Int'l Code: 1990-046E
Perigee: 844.2 km
Apogee: 1,156.6 km
Inclination: 71.0 °
Period: 105.0 minutes
Semi major axis: 7371 km
RCS: 0.0854 m2 (small)
Launch date: May 22, 1990
Source: Commonwealth of Independent States (former USSR) (CIS)
Launch site: TYURATAM MISSILE AND SPACE COMPLEX (TTMTR)

Note: This is SATELLITE DEBRIS
aabbcc
Your satellite tracking list
Your tracking list is empty




NASA's NSSDC Master Catalog

Two Line Element Set (TLE):
1 20628U 90046E   18020.55504725 +.00000031 +00000-0 +70742-4 0  9999
2 20628 070.9775 065.2876 0211866 230.6240 127.5927 13.71753889384459
Source of the keplerian elements: AFSPC